Regional Weather Roundup
Issued by NWS State College, PA

Current Version | Previous Version | Text Only | Print | Product List | Glossary On
Versions: 1 2 3 4 5 6 7 8 9 10 11 12 13 14 15 16 17 18 19 20 21 22 23 24 25 26 27 28 29 30 31 32 33 34 35 36 37 38 39 40 41 42 43 44 45 46 47 48 49 50
000
ASUS41 KCTP 261110
RWRCTP

REGIONAL WEATHER ROUNDUP
NATIONAL WEATHER SERVICE STATE COLLEGE PA
700 AM EDT SUN MAY 26 2019

Note: "fair" indicates few or no clouds below 12,000 feet with no
significant weather and/or obstructions to visibility.

* = STATION THAT DOES NOT REPORT PRECIPITATION /E.G. RAIN...SNOW...ETC/
    THUNDER OR FOG.

PAZ002>004-007>009-013>016-020>023-029>032-261200-
WESTERN PENNSYLVANIA

CITY           SKY/WX    TMP DP  RH WIND       PRES   REMARKS
ERIE           CLOUDY    70  64  81 S6        29.97R
MEADVILLE      FAIR      63  62  97 S6        30.01R
FRANKLIN*      FAIR      62  62 100 SW7       30.03R FOG
NEW CASTLE     FAIR      64  62  93 VRB5      30.03R
BEAVER COUNTY  NOT AVBL
BUTLER*        FAIR      63  63 100 S5        30.04R FOG
PITTSBURGH INT PTSUNNY   63  63 100 CALM      30.04R
PITTSBURGH     FAIR      64  63  96 SW6       30.04R
INDIANA*       CLOUDY    64  64 100 CALM      30.10R FOG
LATROBE        PTSUNNY   64  64 100 SW7       30.05S
WASHINGTON CO* FAIR      64  63  96 SW3       30.08R
$$

PAZ004>006-010>012-017>019-024>028-033>037-041-042-045-046-049>053-261200-
CENTRAL PENNSYLVANIA

CITY           SKY/WX    TMP DP  RH WIND       PRES   REMARKS
BRADFORD       CLOUDY    63  62  97 VRB6      30.04R
DUBOIS         FAIR      59  58  96 CALM      30.05R FOG
CLEARFIELD     CLOUDY    63  63 100 SW9       30.05R FOG
JOHNSTOWN      FAIR      63  60  90 S6        30.09R
ALTOONA        FAIR      66  61  84 CALM      30.06R
STATE COLLEGE  MOSUNNY   64  63  94 SW5       30.04R
WILLIAMSPORT   FOG       63  63 100 NW5       29.98R VSB 1/4
SELINSGROVE    CLOUDY    65  64  97 CALM      30.00R FOG
FT INDIANTOWN  FOG       63  63  99 CALM      30.00S VSB 1/8
CAPITAL CITY   FOG       67  65  93 W6        30.00R VSB 1
HARRISBURG     FOG       67  65  93 CALM      29.99S VSB 1/16
YORK           FAIR      65  64  97 CALM      30.01S FOG
$$

PAZ038>040-043-044-047-048-054-055-060>062-067>071-261200-
EASTERN PENNSYLVANIA

CITY           SKY/WX    TMP DP  RH WIND       PRES   REMARKS
SCRANTON       CLOUDY    65  64  97 SW7       29.98S FOG
MOUNT POCONO   CLOUDY    61  61 100 W13       30.00S
ALLENTOWN      CLOUDY    66  61  84 W5        29.99S
QUAKERTOWN*    MOSUNNY   64  63  94 CALM      29.99F
READING        CLOUDY    64  64 100 CALM      29.99R
LANCASTER      FOG       64  63  96 CALM      30.00R VSB 1/4
COATESVILLE    CLOUDY    64  64 100 W6        30.02R FOG
POTTSTOWN      CLOUDY    63  62  97 SW3       30.01R
BLUE BELL      CLOUDY    66  63  92 SW5       30.00S
DOYLESTOWN     CLOUDY    65  61  87 SW6       29.98S
WILLOW GROVE   NOT AVBL
NORTH PHILA    CLOUDY    68  63  84 W5        30.00S
PHILADELPHIA   CLOUDY    66  64  93 W5        30.00S
$$




USA.gov is the U.S. government's official web portal to all federal, state and local government web resources and services.